Temp
72 72 72 71 72 71 71 68 68 67 66 66 64 63 62 63 63 62 63 63 62 61 60 60 61 61 61 62 62 63 60 57 57 58 57 56 54 53 52 53 54 54
71 71 71 71 71 70 71 70 69 68 66 66 66 65 64 64 63 62 61 61 60 58 58 58 60 60 61 60 59 61 58 57 55 54 54 53 52 52 52 52 52 52
71 70 70 70 70 69 69 70 69 68 67 67 67 66 64 64 62 62 62 60 58 58 58 59 59 59 59 59 58 56 55 53 51 52 53 52 52 52 51 51 51 50
70 70 70 70 70 69 69 68 67 67 67 66 66 65 64 62 61 61 61 56 59 58 58 58 58 58 57 55 55 55 54 53 52 53 52 52 52 51 50 50 49 49
69 69 69 70 70 69 68 66 65 65 65 66 65 65 62 60 59 59 58 59 59 58 58 56 57 57 56 55 55 54 53 52 51 52 51 49 49 49 49 48 47 46
68 69 69 68 68 67 66 65 65 65 65 64 64 62 61 59 57 56 55 56 56 55 54 54 55 55 55 54 54 52 51 49 50 50 49 47 46 47 47 46 45 44
64 65 65 66 66 65 65 65 64 63 64 64 62 59 59 57 55 54 54 54 53 53 53 52 52 53 53 53 52 50 50 48 48 48 46 45 45 44 44 44 44 44
62 62 63 63 63 63 63 64 63 62 61 61 60 56 56 55 53 52 52 53 52 53 52 52 52 53 52 52 50 49 47 47 46 46 45 44 43 42 43 44 43 42
59 59 60 60 60 60 60 60 60 59 58 57 56 53 52 53 53 52 52 52 51 51 52 51 52 51 50 50 49 47 46 46 46 45 44 43 43 42 42 43 42 41
56 57 57 57 58 58 58 57 56 55 53 55 53 51 50 48 49 50 49 51 51 50 50 50 50 49 49 49 48 47 46 45 45 45 44 44 44 43 42 42 42 41
53 54 54 55 55 55 55 52 51 50 50 51 49 48 48 47 45 46 47 48 48 49 49 49 49 48 48 48 47 46 46 45 45 45 44 44 44 43 41 42 42 41
52 51 52 53 52 50 50 48 46 47 47 46 47 47 45 45 46 45 45 46 47 48 49 49 49 48 47 46 46 45 45 45 45 44 44 43 43 42 42 42 42 40
50 50 50 49 48 46 44 43 44 43 44 44 43 44 43 43 43 44 43 45 47 48 48 47 47 47 47 46 45 45 44 44 43 42 42 41 41 41 41 41 40 40
50 49 48 46 44 43 43 42 41 42 42 42 42 43 43 43 44 44 43 42 42 45 47 47 46 46 45 45 45 44 44 43 42 41 40 40 39 40 40 39 39 39
47 47 46 43 41 41 41 41 41 41 41 40 41 42 42 44 45 46 44 43 42 41 43 45 45 44 44 44 43 43 43 42 41 41 40 38 38 38 38 38 38 37
43 41 41 40 40 40 40 40 40 40 39 39 40 40 40 40 40 42 44 44 43 42 43 43 43 43 41 42 42 43 42 41 41 40 39 39 38 37 36 37 37 36
41 40 39 39 39 39 39 39 39 39 38 39 38 38 39 38 39 40 40 40 43 43 42 42 42 41 40 43 43 43 42 41 40 40 39 38 38 37 36 36 35 33
40 39 39 39 38 38 38 38 37 37 38 38 38 37 37 37 38 39 40 40 42 43 42 42 41 39 41 42 42 42 41 41 41 39 39 39 38 37 36 36 34 33
39 38 39 39 39 38 38 37 37 37 37 37 38 38 38 37 38 38 38 39 41 42 41 41 40 39 41 41 41 42 42 41 40 39 39 39 39 38 37 36 35 34
38 38 38 39 39 38 37 37 36 37 37 37 37 37 38 38 38 37 39 39 41 42 41 40 39 38 40 40 40 41 41 41 40 39 39 39 38 38 37 36 36 35
39 38 38 37 37 37 36 36 37 36 36 36 36 36 37 37 38 37 38 38 40 40 40 39 38 38 39 39 39 40 41 40 39 38 38 38 38 37 37 37 36 36
39 39 38 38 37 36 36 36 37 36 36 36 37 37 37 37 37 37 37 37 39 40 39 38 37 38 38 38 39 40 40 38 38 38 37 36 36 36 36 36 36 36
39 38 38 36 36 35 35 35 35 36 36 36 36 36 36 36 36 37 37 37 37 38 38 37 36 37 38 38 38 39 38 37 36 36 35 35 35 35 35 35 34 35
40 39 37 36 35 35 35 35 36 36 35 36 36 36 36 36 37 37 37 37 37 37 38 36 35 36 37 37 38 39 37 35 36 35 33 33 33 34 34 33 33 32
40 39 37 36 35 35 35 35 35 35 35 36 36 36 36 36 37 36 36 36 36 36 35 36 35 35 36 37 38 38 37 35 36 34 32 32 31 31 32 31 31 30
38 37 36 36 35 35 35 35 36 35 35 35 36 36 36 36 36 35 34 35 35 35 35 36 35 34 35 37 37 37 37 36 36 34 32 31 30 30 29 29 29 29
MSLP
1014.81 1015.15 1015.43 1015.69 1015.83 1015.93 1016.23 1016.69 1016.99 1017.33 1017.73 1017.97 1018.25 1018.51 1018.71 1019.01 1019.43 1019.85 1020.09 1020.25 1020.55 1020.93 1021.29 1021.47 1021.61 1021.81 1022.05 1022.23 1022.53 1022.57 1023.05 1023.73 1023.75 1023.73 1024.09 1024.31 1024.55 1024.67 1024.85 1024.95 1025.01 1025.19
1014.27 1014.63 1014.93 1015.11 1015.35 1015.53 1015.75 1016.09 1016.45 1016.77 1017.13 1017.31 1017.49 1017.83 1018.15 1018.45 1018.87 1019.29 1019.75 1020.05 1020.41 1020.77 1021.11 1021.35 1021.47 1021.65 1021.89 1022.25 1022.53 1022.53 1023.09 1023.43 1023.77 1024.13 1024.25 1024.45 1024.65 1024.77 1024.93 1025.09 1025.27 1025.47
1013.85 1014.19 1014.41 1014.65 1014.87 1015.05 1015.29 1015.57 1015.87 1016.19 1016.51 1016.77 1016.87 1017.19 1017.63 1017.99 1018.45 1018.81 1019.09 1019.51 1020.07 1020.53 1020.91 1021.13 1021.35 1021.59 1021.79 1022.09 1022.49 1022.93 1023.29 1023.55 1023.95 1024.17 1024.29 1024.45 1024.57 1024.75 1025.05 1025.27 1025.49 1025.63
1013.41 1013.63 1013.91 1014.11 1014.29 1014.57 1014.81 1015.27 1015.55 1015.79 1016.13 1016.41 1016.45 1016.61 1017.03 1017.57 1018.05 1018.53 1018.85 1019.29 1019.61 1020.09 1020.51 1020.89 1021.17 1021.51 1021.85 1022.25 1022.57 1022.87 1023.17 1023.51 1023.77 1023.97 1024.17 1024.35 1024.53 1024.77 1025.09 1025.31 1025.63 1025.87
1013.17 1013.41 1013.61 1013.73 1013.87 1014.09 1014.45 1014.89 1015.15 1015.41 1015.69 1015.81 1015.97 1016.27 1016.85 1017.39 1017.93 1018.43 1018.79 1019.03 1019.29 1019.87 1020.23 1020.67 1021.01 1021.33 1021.67 1022.07 1022.33 1022.75 1023.13 1023.43 1023.75 1023.89 1024.07 1024.37 1024.65 1024.89 1025.23 1025.49 1025.79 1026.09
1013.05 1013.25 1013.45 1013.55 1013.61 1013.89 1014.27 1014.49 1014.69 1014.99 1015.31 1015.55 1015.63 1016.09 1016.59 1017.13 1017.73 1018.21 1018.71 1018.87 1019.23 1019.79 1020.29 1020.63 1020.91 1021.21 1021.47 1021.83 1022.21 1022.67 1023.05 1023.45 1023.67 1023.77 1024.05 1024.41 1024.83 1025.15 1025.35 1025.61 1025.95 1026.27
1013.13 1013.21 1013.31 1013.41 1013.59 1013.75 1014.03 1014.21 1014.43 1014.73 1014.99 1015.17 1015.55 1016.07 1016.43 1017.05 1017.57 1018.01 1018.51 1018.87 1019.17 1019.61 1020.05 1020.47 1020.83 1021.15 1021.37 1021.73 1022.09 1022.65 1023.03 1023.37 1023.63 1023.75 1024.05 1024.53 1024.89 1025.29 1025.51 1025.73 1026.05 1026.35
1013.17 1013.21 1013.29 1013.43 1013.57 1013.73 1013.93 1014.07 1014.33 1014.61 1014.81 1015.13 1015.49 1015.99 1016.39 1016.89 1017.37 1017.93 1018.35 1018.71 1019.09 1019.45 1019.83 1020.17 1020.61 1020.89 1021.17 1021.51 1021.93 1022.55 1023.05 1023.39 1023.53 1023.73 1024.09 1024.59 1024.97 1025.33 1025.61 1025.83 1026.13 1026.49
1013.41 1013.45 1013.51 1013.65 1013.77 1013.85 1013.97 1014.09 1014.27 1014.49 1014.77 1015.11 1015.53 1016.13 1016.59 1016.81 1017.21 1017.67 1018.11 1018.49 1018.91 1019.27 1019.61 1019.93 1020.31 1020.65 1020.99 1021.31 1021.77 1022.33 1022.87 1023.23 1023.43 1023.63 1024.01 1024.47 1024.89 1025.29 1025.63 1025.91 1026.21 1026.49
1013.61 1013.63 1013.71 1013.73 1013.79 1013.85 1013.99 1014.17 1014.35 1014.57 1014.89 1015.23 1015.69 1016.27 1016.67 1017.05 1017.29 1017.71 1017.99 1018.15 1018.47 1019.01 1019.41 1019.75 1020.17 1020.49 1020.85 1021.27 1021.69 1022.23 1022.73 1023.09 1023.41 1023.71 1024.05 1024.37 1024.71 1025.17 1025.57 1025.85 1026.09 1026.43
1013.73 1013.73 1013.73 1013.75 1013.79 1013.93 1014.07 1014.31 1014.51 1014.81 1015.11 1015.35 1015.89 1016.41 1016.71 1017.03 1017.45 1017.79 1018.11 1018.25 1018.41 1018.81 1019.25 1019.61 1019.93 1020.33 1020.77 1021.35 1021.85 1022.31 1022.73 1023.09 1023.41 1023.75 1024.03 1024.33 1024.69 1025.09 1025.43 1025.69 1025.99 1026.21
1013.63 1013.73 1013.75 1013.79 1013.93 1014.13 1014.31 1014.61 1014.91 1015.13 1015.41 1015.71 1015.93 1016.33 1016.83 1017.05 1017.11 1017.77 1017.99 1018.35 1018.51 1018.73 1019.09 1019.51 1019.85 1020.27 1020.77 1021.39 1021.93 1022.39 1022.83 1023.19 1023.45 1023.75 1024.07 1024.39 1024.75 1025.13 1025.43 1025.67 1025.87 1026.19
1013.63 1013.77 1013.93 1014.03 1014.19 1014.45 1014.77 1015.07 1015.27 1015.47 1015.63 1015.87 1016.21 1016.47 1016.87 1017.37 1017.53 1017.49 1017.91 1018.21 1018.57 1018.77 1019.05 1019.39 1019.83 1020.33 1020.87 1021.43 1021.93 1022.35 1022.75 1023.13 1023.51 1023.87 1024.21 1024.53 1024.87 1025.23 1025.57 1025.83 1026.03 1026.29
1013.57 1013.75 1013.99 1014.19 1014.47 1014.79 1015.05 1015.31 1015.57 1015.77 1015.95 1016.19 1016.43 1016.67 1016.99 1017.25 1017.37 1017.59 1017.93 1018.29 1018.63 1018.97 1019.17 1019.25 1019.69 1020.27 1020.79 1021.31 1021.77 1022.21 1022.67 1023.13 1023.51 1023.89 1024.31 1024.71 1025.07 1025.45 1025.77 1026.01 1026.19 1026.39
1013.55 1013.77 1014.01 1014.31 1014.63 1014.91 1015.21 1015.53 1015.79 1016.03 1016.27 1016.49 1016.67 1016.81 1016.95 1017.15 1017.23 1017.31 1017.71 1018.33 1018.75 1019.15 1019.49 1019.47 1019.73 1020.15 1020.47 1020.95 1021.59 1022.19 1022.61 1023.07 1023.47 1023.83 1024.19 1024.65 1025.17 1025.63 1025.97 1026.17 1026.31 1026.51
1013.79 1014.01 1014.17 1014.41 1014.63 1014.85 1015.19 1015.55 1015.83 1016.15 1016.41 1016.65 1016.85 1017.03 1017.19 1017.45 1017.69 1017.73 1017.59 1017.85 1018.49 1019.03 1019.43 1019.71 1019.91 1020.17 1020.39 1020.75 1021.25 1021.77 1022.41 1022.95 1023.39 1023.75 1024.09 1024.51 1025.03 1025.63 1026.03 1026.19 1026.37 1026.67
1014.21 1014.31 1014.45 1014.49 1014.67 1014.95 1015.25 1015.51 1015.85 1016.17 1016.47 1016.75 1017.03 1017.23 1017.43 1017.69 1017.95 1017.95 1017.99 1018.13 1018.33 1018.69 1019.25 1019.73 1020.01 1020.29 1020.53 1020.83 1021.33 1021.79 1022.23 1022.75 1023.13 1023.63 1024.03 1024.47 1024.91 1025.31 1025.69 1026.07 1026.45 1026.89
1014.61 1014.73 1014.79 1014.87 1014.95 1015.05 1015.27 1015.53 1015.85 1016.13 1016.41 1016.69 1016.99 1017.27 1017.57 1017.81 1018.11 1018.11 1017.99 1018.47 1018.71 1018.85 1019.15 1019.55 1019.89 1020.27 1020.55 1020.87 1021.29 1021.71 1022.11 1022.47 1022.89 1023.39 1023.91 1024.33 1024.71 1025.05 1025.39 1025.79 1026.29 1026.75
1014.85 1014.97 1015.09 1015.23 1015.35 1015.43 1015.59 1015.81 1015.97 1016.19 1016.41 1016.69 1016.91 1017.19 1017.55 1017.75 1017.93 1018.29 1018.33 1018.47 1018.73 1018.91 1019.19 1019.53 1019.91 1020.31 1020.57 1020.89 1021.29 1021.69 1022.07 1022.37 1022.77 1023.17 1023.55 1023.99 1024.37 1024.71 1025.11 1025.51 1025.93 1026.35
1014.85 1015.05 1015.19 1015.39 1015.63 1015.87 1015.99 1016.07 1016.17 1016.27 1016.47 1016.71 1016.99 1017.33 1017.55 1017.73 1017.93 1018.19 1018.37 1018.51 1018.75 1018.99 1019.25 1019.61 1019.99 1020.35 1020.61 1020.95 1021.35 1021.69 1021.99 1022.29 1022.71 1023.11 1023.47 1023.81 1024.15 1024.45 1024.83 1025.23 1025.57 1025.91
1014.77 1015.01 1015.23 1015.51 1015.69 1015.91 1016.13 1016.29 1016.33 1016.47 1016.67 1016.89 1017.11 1017.27 1017.43 1017.61 1017.85 1018.19 1018.45 1018.61 1018.85 1019.19 1019.43 1019.63 1020.01 1020.35 1020.63 1020.99 1021.33 1021.65 1021.97 1022.31 1022.73 1023.13 1023.49 1023.85 1024.11 1024.37 1024.67 1024.97 1025.29 1025.59
1014.65 1014.91 1015.21 1015.55 1015.85 1016.05 1016.23 1016.37 1016.43 1016.55 1016.67 1016.91 1017.21 1017.45 1017.61 1017.75 1017.95 1018.05 1018.25 1018.47 1018.77 1019.13 1019.39 1019.63 1020.09 1020.37 1020.65 1020.99 1021.31 1021.61 1021.93 1022.33 1022.73 1023.05 1023.45 1023.83 1024.11 1024.39 1024.65 1024.93 1025.15 1025.33
1014.57 1014.87 1015.19 1015.55 1015.89 1016.13 1016.29 1016.37 1016.49 1016.67 1016.89 1017.07 1017.29 1017.45 1017.59 1017.75 1017.91 1018.13 1018.37 1018.59 1018.85 1019.11 1019.29 1019.65 1020.15 1020.47 1020.65 1020.91 1021.19 1021.49 1021.87 1022.33 1022.71 1023.05 1023.39 1023.75 1024.09 1024.41 1024.71 1024.99 1025.19 1025.31
1014.45 1014.77 1015.15 1015.49 1015.83 1016.07 1016.25 1016.41 1016.55 1016.75 1016.95 1017.07 1017.17 1017.35 1017.61 1017.79 1017.97 1018.29 1018.51 1018.67 1018.87 1019.05 1019.17 1019.57 1020.09 1020.39 1020.63 1020.85 1021.11 1021.37 1021.63 1022.07 1022.49 1022.85 1023.35 1023.67 1024.09 1024.45 1024.75 1025.01 1025.19 1025.31
1014.37 1014.71 1015.07 1015.41 1015.73 1015.99 1016.25 1016.47 1016.59 1016.73 1016.99 1017.25 1017.37 1017.45 1017.65 1017.83 1018.07 1018.35 1018.61 1018.81 1018.97 1019.13 1019.31 1019.53 1019.93 1020.41 1020.65 1020.83 1021.09 1021.33 1021.69 1022.01 1022.29 1022.69 1023.11 1023.55 1023.93 1024.39 1024.73 1024.97 1025.25 1025.41
1014.27 1014.63 1014.97 1015.31 1015.59 1015.95 1016.23 1016.45 1016.67 1016.95 1017.21 1017.37 1017.49 1017.57 1017.79 1017.99 1018.19 1018.39 1018.63 1018.81 1019.03 1019.23 1019.49 1019.65 1020.01 1020.43 1020.67 1020.87 1021.11 1021.37 1021.59 1021.79 1022.05 1022.33 1022.67 1023.19 1023.67 1024.03 1024.49 1024.87 1025.15 1025.29
Wind_Speed
14 13 14 13 13 12 10 10 10 11 11 12 8 9 9 8 10 11 9 8 8 7 6 6 6 6 4 6 7 8 7 8 8 6 7 6 6 6 6 6 4 4
15 14 11 10 10 9 10 11 11 11 11 13 10 10 9 10 11 12 10 8 9 7 7 7 7 7 8 7 7 8 8 8 7 4 7 7 6 6 6 6 5 5
15 15 14 14 13 11 12 11 10 11 9 13 10 9 8 9 9 10 10 11 9 9 8 8 7 7 7 7 8 7 7 7 7 6 6 7 6 6 6 6 5 4
15 15 14 15 14 12 12 10 9 9 10 12 10 10 10 10 10 11 11 12 11 9 9 9 9 9 9 9 8 6 7 7 6 7 6 5 5 6 6 5 5 4
15 14 13 13 12 10 10 11 11 11 11 12 10 11 9 10 10 11 11 11 10 9 8 9 8 8 9 8 8 6 7 6 6 6 6 6 5 5 5 5 5 5
12 12 12 10 9 10 10 11 11 12 12 11 11 9 10 11 11 11 11 11 10 10 8 7 7 7 8 8 7 6 6 5 6 6 7 7 6 4 4 5 5 5
7 8 9 8 10 11 12 12 11 11 10 9 8 10 9 11 11 12 11 10 11 11 10 9 8 8 7 7 7 7 6 6 6 7 8 6 6 6 4 5 5 5
11 10 10 9 10 11 11 11 9 9 8 9 10 9 10 11 12 10 10 11 11 11 10 10 9 8 8 8 8 9 7 6 7 8 8 7 7 7 5 4 4 5
7 7 7 7 8 7 8 8 7 7 8 9 9 9 8 10 12 12 13 12 10 10 10 10 9 10 9 8 9 10 9 8 7 8 8 9 8 7 6 5 5 5
5 6 8 9 10 9 8 6 6 6 7 9 9 8 10 7 8 10 10 12 12 11 11 10 10 9 9 8 10 10 10 9 8 7 7 8 8 8 7 6 6 6
5 5 7 8 8 6 7 5 5 6 6 8 8 8 9 9 8 7 8 9 10 12 11 11 10 10 10 9 8 7 8 8 8 7 7 7 7 7 6 6 6 6
6 5 6 6 5 4 4 4 5 5 6 5 8 10 8 8 13 11 10 9 9 11 11 10 10 10 10 9 9 8 8 7 7 7 7 7 7 6 5 4 5 6
3 3 3 3 3 3 3 4 4 5 6 7 6 8 9 8 6 10 8 9 8 9 11 11 11 10 10 10 9 9 9 9 8 7 7 7 6 6 5 4 5 5
6 3 2 2 3 3 4 4 4 4 4 4 6 8 9 10 11 11 8 7 6 6 8 10 11 10 10 10 10 10 9 8 8 8 8 7 7 6 5 4 5 5
5 4 4 4 4 4 4 4 4 4 4 5 5 6 6 7 8 11 11 10 7 7 7 8 10 11 10 11 11 10 9 9 9 9 9 9 7 6 5 5 5 4
4 3 4 4 5 5 5 5 5 5 5 5 5 4 4 4 4 5 10 12 11 10 9 8 8 7 11 17 13 11 10 9 8 8 9 9 9 8 6 5 5 4
3 4 4 5 5 5 5 6 6 6 6 6 5 5 6 6 6 7 5 7 11 12 12 9 8 7 15 16 16 16 11 10 10 9 8 8 8 8 8 7 6 6
2 3 4 4 5 6 6 6 7 7 7 8 8 7 6 6 5 5 8 7 8 10 11 10 9 12 17 17 17 17 13 10 9 9 8 8 8 8 7 7 7 7
3 3 3 4 5 4 6 6 7 7 7 8 9 8 8 9 9 7 7 8 9 11 11 10 9 14 17 17 17 16 15 12 8 9 9 8 8 8 8 8 7 7
5 4 4 4 4 5 5 6 7 7 5 4 6 6 8 8 8 9 8 10 10 10 10 9 9 13 15 16 16 16 16 11 8 9 8 8 8 8 7 8 8 8
6 5 5 5 5 3 3 4 6 5 5 5 6 8 8 9 9 8 8 7 9 7 8 10 9 15 12 13 12 12 12 11 8 7 7 7 6 6 7 7 7 7
6 6 6 5 5 4 4 4 4 5 7 6 5 4 3 3 3 4 8 9 8 10 9 9 9 15 13 14 15 14 14 8 8 8 8 7 6 6 6 5 5 6
6 6 6 4 4 5 6 5 5 5 4 3 5 5 5 5 5 6 6 8 8 8 9 9 10 14 16 15 16 17 11 7 7 6 6 7 7 6 5 5 5 6
7 7 5 5 5 6 6 4 4 3 4 4 6 7 6 5 5 5 5 6 8 8 10 10 9 13 16 15 17 16 12 9 8 8 7 6 5 6 5 5 5 7
6 6 5 6 6 6 5 5 5 5 5 4 4 4 5 4 5 6 6 5 6 7 9 10 9 11 15 14 16 14 11 7 8 8 9 7 6 6 5 4 5 6
5 6 5 6 6 5 5 5 4 5 5 5 4 3 4 4 4 4 8 7 6 6 6 6 8 8 11 15 14 14 12 8 7 10 10 9 7 6 6 5 6 6
Wind_Direction
208 213 217 215 218 217 203 192 196 197 192 195 179 180 171 164 167 176 175 159 156 151 149 149 151 149 152 184 190 204 170 188 181 172 176 165 151 147 137 139 136 127
206 209 211 211 214 206 198 198 197 199 197 198 184 179 177 167 170 175 172 155 157 147 149 157 168 165 170 172 180 191 179 180 161 158 165 153 143 137 130 129 121 120
202 206 208 207 209 193 189 201 197 198 194 203 178 167 163 170 162 175 167 158 152 148 154 160 156 158 159 161 160 164 168 160 159 162 156 146 142 135 128 127 123 128
205 205 207 209 210 194 186 197 197 197 196 202 187 175 171 171 166 175 172 164 159 150 156 159 161 159 154 150 156 164 161 158 156 156 142 131 127 122 127 123 120 113
205 206 207 209 203 182 183 198 196 195 198 202 184 177 168 167 168 173 172 171 165 160 151 153 161 155 148 150 155 150 153 146 149 152 139 127 119 119 119 122 124 124
208 210 209 204 184 186 192 199 197 193 196 189 183 167 174 165 168 171 174 169 159 157 150 155 158 150 148 147 147 145 147 144 153 145 132 128 121 110 122 121 125 127
201 199 200 201 197 194 200 202 197 191 192 184 165 171 166 167 170 171 170 168 160 157 158 158 156 151 148 144 144 142 146 142 145 140 132 124 125 118 108 123 126 127
211 207 204 201 202 199 203 198 193 188 181 166 176 165 171 171 170 167 170 164 165 162 160 159 159 149 149 151 146 149 142 148 150 142 132 128 128 130 129 124 128 129
208 203 200 201 202 204 203 197 188 176 170 170 167 162 172 173 171 169 170 165 162 157 159 158 160 157 154 155 152 155 153 154 152 146 142 141 140 141 139 135 135 138
213 207 206 207 210 210 209 195 181 165 160 167 162 157 166 164 165 169 169 167 159 158 161 161 161 156 153 154 155 155 156 153 147 140 139 141 141 142 144 148 147 140
216 206 206 208 211 203 203 180 171 155 161 158 148 161 168 158 154 159 167 169 160 161 162 164 161 156 153 150 150 150 150 147 143 140 139 137 136 140 142 148 150 148
214 213 214 212 207 200 187 160 148 152 152 148 159 162 163 174 162 165 168 170 168 164 162 160 155 156 152 152 150 145 144 142 139 136 132 128 130 131 137 141 147 137
213 212 211 208 186 155 126 134 149 154 156 160 163 159 159 163 174 160 165 164 168 162 161 156 152 149 149 148 148 147 147 144 138 132 125 122 120 123 124 125 126 136
210 194 170 144 120 119 135 142 145 151 157 150 153 160 167 172 169 167 159 149 147 159 160 151 150 151 149 148 148 149 148 145 143 138 131 123 118 117 119 124 123 129
156 159 144 124 127 130 135 140 146 148 140 147 162 168 173 182 181 163 151 147 142 145 155 152 154 158 156 153 150 151 149 146 145 142 138 133 128 123 128 128 125 122
153 137 133 132 140 149 150 149 148 148 148 152 159 155 145 139 155 165 159 156 153 153 155 160 162 162 157 154 155 153 152 147 143 143 142 140 138 137 135 136 131 119
146 150 140 148 150 139 140 144 145 146 150 150 151 147 144 148 161 159 157 157 157 157 159 164 163 157 154 154 154 152 148 151 149 145 141 142 148 150 149 146 138 125
153 142 151 153 150 155 153 151 145 149 157 159 157 154 151 144 161 177 151 156 158 157 160 165 163 154 157 156 157 157 157 152 149 146 150 151 154 151 147 147 145 148
141 151 157 163 172 155 148 144 153 155 158 159 167 163 148 158 163 162 162 157 162 163 161 159 155 155 158 158 158 158 156 150 148 150 151 155 154 152 150 153 153 155
154 160 166 164 149 150 155 157 161 169 162 155 143 146 162 164 164 166 161 164 167 167 162 158 154 161 154 154 154 156 157 151 148 150 150 149 153 151 152 157 162 162
160 166 165 152 146 152 161 172 169 155 153 159 162 167 169 171 168 165 168 165 162 165 162 162 162 161 147 147 147 146 146 146 144 143 139 140 140 143 152 158 162 164
164 165 162 157 157 154 157 170 169 168 166 158 155 157 153 144 156 162 163 167 168 169 167 162 160 159 149 152 153 153 146 143 147 147 142 142 137 139 144 155 163 165
163 162 160 158 160 163 174 174 166 159 152 144 151 162 161 165 168 171 170 168 168 173 168 157 156 165 161 159 159 156 148 150 148 142 140 139 143 144 149 158 163 167
161 163 163 162 163 176 179 175 158 146 157 163 167 164 169 172 161 160 165 170 171 174 171 160 164 170 166 161 161 161 159 154 155 144 144 147 142 148 153 161 166 168
157 162 167 167 173 178 172 170 168 164 158 156 166 160 163 156 161 161 166 170 176 174 165 164 164 170 169 163 164 162 157 156 152 148 151 159 154 158 157 154 161 173
159 164 166 169 174 167 165 167 148 139 155 162 164 150 152 146 121 145 170 175 164 170 167 167 162 168 174 167 166 164 163 162 162 158 168 166 164 161 157 168 172 178